C/2015 V2 ( Johnson )

Japanese version
Home page
Updated on August 6, 2017

---------------------------------------------------------------------

* Profile

Discovery Date November 3, 2015
Magnitude 17.1 mag
Discoverer J. A. Johnson (Catalina Sky Survey)

* Pictures

* Orbital Elements

Epoch 2017 June 16.0 TT = JDT 2457920.5
T 2017 June 12.34223 TT                                 MPCW
q   1.6369814            (2000.0)            P               Q
z  -0.0010786      Peri.  164.89737     -0.49022540     +0.49433700
 +/-0.0000001      Node    69.84906     -0.85775124     -0.12740942
e   1.0017657      Incl.   49.87647     -0.15473158     -0.85988242
From 5354 observations 2015 Jan. 11-2017 July 5, mean residual 0".5.

* Finding Charts

* Magnitudes Graph

        m1 = 6.0 + 5 log d + 9.0 log r

---------------------------------------------------------------------

The orbital elements are published on M.P.E.C. 2017-N58.
The charts are made with StellaNavigator Ver.8 (AstroArts).
The magnitudes graphs are made with Comet for Windows.

---------------------------------------------------------------------

Copyright(C) Seiichi Yoshida (comet@aerith.net). All rights reserved.